Weather History for Walhalla, ND

Change the Weather History Date:

Wednesday, May 7, 2014

  Actual Average (KGAF) Record (KGAF)
Temperature  
Mean Temperature 46 °F -  
Max Temperature 50 °F 65 °F 90 °F (1953)
Min Temperature 41 °F 40 °F 21 °F (1976)
Degree Days  
Heating Degree Days 20    
Moisture  
Dew Point 47 °F    
Average Humidity 100    
Maximum Humidity 100    
Minimum Humidity 94    
Precipitation  
Precipitation 0.02 in - - ()
Sea Level Pressure  
Sea Level Pressure 29.85 in    
Wind  
Wind Speed 5 mph (NE)    
Max Wind Speed 16 mph    
Max Gust Speed 22 mph    
Visibility 9 miles    
Events Rain    
Averages and records for this station are not official NWS values.
T = Trace of Precipitation, MM = Missing Value Source: NWS Daily Summary

Daily Weather History Graph

Daily Weather History Graph

Search for Another Location

Airport:

Trip Planner

Search our weather history database for the weather conditions in past years. The results will help you decide how hot, cold, wet, or windy it might be!

Date:

Astronomy

May. 07, 2014 Rise Set
Actual Time 6:01 AM CDT 8:56 PM CDT
Civil Twilight 5:24 AM CDT 9:32 PM CDT
Nautical Twilight 4:37 AM CDT 10:20 PM CDT
Astronomical Twilight 3:40 AM CDT 11:18 PM CDT
Moon 1:27 PM CDT (5/7) 2:37 AM CDT (5/7)
Length of Visible Light 16h 08m
Length of Day
14h 55m
First Quarter, 55% of the Moon is Illuminated
May 7
First Quarter
May 14
Full
May 21
Last Quarter
May 28
New
Jun 5
First Quarter

Hourly Weather History & Observations

Time (CDT) Temp. Windchill Dew Point Humidity Pressure Visibility Wind Dir Wind Speed Gust Speed Precip Events Conditions
12:15 AM 46.4 °F - 46.4 °F 100% 29.87 in 10.0 mi Calm Calm - N/A   Unknown
12:35 AM 46.4 °F - 46.4 °F 100% 29.88 in 10.0 mi Calm Calm - N/A   Clear
1:15 AM 46.4 °F 44.3 °F 46.4 °F 100% 29.87 in 10.0 mi East 4.6 mph - N/A   Unknown
1:35 AM 46.4 °F 44.3 °F 46.4 °F 100% 29.87 in 10.0 mi ESE 4.6 mph - N/A   Unknown
1:55 AM 46.4 °F 45.2 °F 46.4 °F 100% 29.87 in 10.0 mi SE 3.5 mph - N/A   Clear
2:15 AM 46.4 °F - 46.4 °F 100% 29.86 in 10.0 mi Calm Calm - N/A   Clear
2:35 AM 46.4 °F 45.2 °F 46.4 °F 100% 29.86 in 10.0 mi East 3.5 mph - N/A   Clear
2:55 AM 46.4 °F 44.3 °F 46.4 °F 100% 29.85 in 10.0 mi ESE 4.6 mph - N/A   Clear
3:15 AM 44.6 °F 41.4 °F 44.6 °F 100% 29.84 in 10.0 mi East 5.8 mph - N/A   Unknown
3:35 AM 44.6 °F 42.2 °F 44.6 °F 100% 29.84 in 10.0 mi ESE 4.6 mph - N/A   Clear
3:55 AM 44.6 °F 43.1 °F 44.6 °F 100% 29.84 in 10.0 mi East 3.5 mph - N/A   Clear
4:15 AM 44.6 °F 43.1 °F 44.6 °F 100% 29.84 in 10.0 mi ESE 3.5 mph - N/A   Clear
4:35 AM 44.6 °F - 44.6 °F 100% 29.85 in 10.0 mi Calm Calm - N/A   Clear
4:55 AM 44.6 °F 42.2 °F 44.6 °F 100% 29.84 in 10.0 mi East 4.6 mph - N/A   Clear
5:15 AM 44.6 °F 43.1 °F 44.6 °F 100% 29.84 in 10.0 mi ENE 3.5 mph - N/A   Unknown
5:35 AM 44.6 °F 43.1 °F 44.6 °F 100% 29.84 in 10.0 mi East 3.5 mph - N/A   Unknown
5:55 AM 44.6 °F 42.2 °F 44.6 °F 100% 29.85 in 10.0 mi East 4.6 mph - N/A   Overcast
6:15 AM 44.6 °F 43.1 °F 44.6 °F 100% 29.85 in 10.0 mi ENE 3.5 mph - N/A   Overcast
6:35 AM 44.6 °F 42.2 °F 44.6 °F 100% 29.85 in 10.0 mi East 4.6 mph - N/A   Unknown
6:55 AM 44.6 °F 41.4 °F 44.6 °F 100% 29.84 in 10.0 mi ESE 5.8 mph - N/A   Unknown
7:15 AM 44.6 °F 43.1 °F 44.6 °F 100% 29.85 in 10.0 mi SE 3.5 mph - N/A   Unknown
7:35 AM 44.6 °F 41.4 °F 44.6 °F 100% 29.85 in 10.0 mi ESE 5.8 mph - N/A   Unknown
7:55 AM 44.6 °F 40.7 °F 44.6 °F 100% 29.84 in 10.0 mi ESE 6.9 mph - N/A   Unknown
8:15 AM 44.6 °F 41.4 °F 44.6 °F 100% 29.85 in 10.0 mi SE 5.8 mph - N/A   Unknown
8:35 AM 44.6 °F 41.4 °F 44.6 °F 100% 29.86 in 10.0 mi ESE 5.8 mph - N/A   Unknown
8:55 AM 46.4 °F 42.9 °F 46.4 °F 100% 29.85 in 10.0 mi ESE 6.9 mph - N/A   Unknown
9:15 AM 46.4 °F 42.4 °F 46.4 °F 100% 29.85 in 10.0 mi ESE 8.1 mph - N/A   Unknown
9:35 AM 46.4 °F 42.9 °F 46.4 °F 100% 29.84 in 10.0 mi ESE 6.9 mph - N/A   Unknown
9:55 AM 46.4 °F 42.4 °F 46.4 °F 100% 29.84 in 10.0 mi ESE 8.1 mph - N/A   Unknown
10:15 AM 46.4 °F 43.5 °F 46.4 °F 100% 29.84 in 10.0 mi East 5.8 mph - N/A   Unknown
10:55 AM 48.2 °F - 48.2 °F 100% 29.83 in 10.0 mi ESE 4.6 mph - N/A   Unknown
11:15 AM 48.2 °F - 48.2 °F 100% 29.83 in 10.0 mi East 6.9 mph - N/A   Unknown
11:35 AM 48.2 °F - 48.2 °F 100% 29.83 in 10.0 mi East 5.8 mph - N/A   Unknown
11:55 AM 50.0 °F - 48.2 °F 94% 29.83 in 10.0 mi ESE 5.8 mph - N/A   Unknown
12:15 PM 50.0 °F - 48.2 °F 94% 29.83 in 10.0 mi ESE 8.1 mph - N/A   Unknown
12:35 PM 50.0 °F - 48.2 °F 94% 29.83 in 10.0 mi ESE 5.8 mph - N/A   Unknown
12:55 PM 50.0 °F - 48.2 °F 94% 29.82 in 10.0 mi East 5.8 mph - N/A   Unknown
1:15 PM 50.0 °F - 48.2 °F 94% 29.82 in 10.0 mi NE 5.8 mph - N/A   Unknown
1:35 PM 50.0 °F - 50.0 °F 100% 29.82 in 8.0 mi ENE 3.5 mph - N/A   Unknown
1:55 PM 50.0 °F - 50.0 °F 100% 29.83 in 4.0 mi NE 4.6 mph - N/A Rain Light Rain
2:15 PM 50.0 °F - 50.0 °F 100% 29.83 in 4.0 mi NNE 4.6 mph - N/A Rain Light Rain
2:35 PM 50.0 °F - 50.0 °F 100% 29.84 in 6.0 mi North 3.5 mph - 0.01 in Rain Light Rain
2:55 PM 50.0 °F - 50.0 °F 100% 29.84 in 9.0 mi NW 4.6 mph - 0.01 in Rain Light Rain
3:15 PM 50.0 °F - 50.0 °F 100% 29.84 in 8.0 mi NNW 6.9 mph - N/A Rain Light Rain
3:35 PM 50.0 °F - 50.0 °F 100% 29.84 in 4.0 mi NNW 6.9 mph - N/A Rain Light Rain
3:55 PM 50.0 °F - 50.0 °F 100% 29.83 in 5.0 mi NW 8.1 mph - 0.01 in Rain Light Rain
4:15 PM 50.0 °F - 50.0 °F 100% 29.83 in 5.0 mi NNW 9.2 mph - N/A   Mist
4:35 PM 50.0 °F - 50.0 °F 100% 29.83 in 9.0 mi North 10.4 mph - N/A   Unknown
4:55 PM 50.0 °F - 50.0 °F 100% 29.83 in 7.0 mi North 10.4 mph - N/A   Unknown
5:15 PM 50.0 °F - 50.0 °F 100% 29.83 in 5.0 mi North 11.5 mph - N/A   Mist
5:35 PM 50.0 °F - 50.0 °F 100% 29.83 in 7.0 mi North 16.1 mph - N/A   Unknown
5:55 PM 50.0 °F - 50.0 °F 100% 29.83 in 9.0 mi North 15.0 mph - N/A   Unknown
6:15 PM 50.0 °F - 50.0 °F 100% 29.84 in 9.0 mi North 15.0 mph - N/A   Unknown
6:35 PM 48.2 °F - 48.2 °F 100% 29.84 in 10.0 mi NNE 15.0 mph - N/A   Unknown
6:55 PM 48.2 °F - 48.2 °F 100% 29.85 in 7.0 mi NNE 12.7 mph 16.1 mph N/A   Unknown
7:15 PM 48.2 °F - 48.2 °F 100% 29.85 in 7.0 mi NNE 9.2 mph - N/A Rain Light Rain
7:35 PM 48.2 °F - 48.2 °F 100% 29.85 in 6.0 mi NNE 5.8 mph - N/A Rain Light Rain
7:55 PM 48.2 °F - 48.2 °F 100% 29.85 in 10.0 mi NE 6.9 mph - N/A   Unknown
8:15 PM 48.2 °F - 48.2 °F 100% 29.86 in 10.0 mi NNE 10.4 mph - N/A   Unknown
8:35 PM 46.4 °F 41.5 °F 46.4 °F 100% 29.86 in - North 10.4 mph - N/A   Unknown
8:55 PM 46.4 °F 41.1 °F 46.4 °F 100% 29.87 in 10.0 mi North 11.5 mph - N/A   Unknown
9:15 PM 46.4 °F 39.8 °F 46.4 °F 100% 29.87 in 10.0 mi North 16.1 mph - N/A   Unknown
9:35 PM 44.6 °F 38.1 °F 44.6 °F 100% 29.89 in 10.0 mi North 13.8 mph - N/A   Unknown
9:55 PM 44.6 °F 37.8 °F 44.6 °F 100% 29.89 in 10.0 mi NNW 15.0 mph - N/A   Unknown
10:15 PM 42.8 °F 35.4 °F 42.8 °F 100% 29.89 in 10.0 mi NNW 15.0 mph - N/A   Clear
10:35 PM 42.8 °F 35.1 °F 42.8 °F 100% 29.89 in 10.0 mi NNW 16.1 mph 21.9 mph N/A   Clear
10:55 PM 42.8 °F 36.2 °F 42.8 °F 100% 29.89 in 10.0 mi NNW 12.7 mph - N/A   Clear
11:15 PM 41.0 °F 33.9 °F 41.0 °F 100% 29.88 in 10.0 mi NNW 12.7 mph - N/A   Clear
11:55 PM 41.0 °F 33.1 °F 41.0 °F 100% 29.88 in 5.0 mi NNW 15.0 mph 20.7 mph N/A   Clear